Location: Morosaglia
(42.4360°N, 9.3069°E)
Time: 02:29:27
(UTC+00:00)

STARLINK-40 - Pass Details

Date: 07 June 2020
Orbit: 434 x 435 km, 53.0° (Epoch: 05 July)

Event Time Altitude Azimuth Distance (km) Brightness Sun altitude
Exits shadow 00:46:57 10° 106° (ESE) 1,518 5.9 -21.9°
Drops below altitude 10° 00:47:04 10° 105° (ESE) 1,535 6.0 -21.9°
Enters shadow 01:44:36 -69° 234° (SW) 12,396 10.4 -16.9°
Maximum altitude 02:22:21 83° 321° (NW) 442 3.1 -12.6°
